Hourly Data Report for October 20, 2015

All times are specified in Local Standard Time (LST). Add 1 hour to adjust for Daylight Saving Time where and when it is observed.

QIKIQTARJUAQ A
NUNAVUT

67°32'48.000" N
64°01'54.000" W
5.50 m
2400577
YVM

Download Data

Hourly Data (October 2015)
Hourly Data Report for October 20, 2015
Temp Definition
°C
Dew Point Temp Definition
°C
Rel Hum Definition
%
Wind Dir Definition
10's deg

Wind Spd Definition
km/h
Visibility Definition
km
Stn Press Definition
kPa
Hmdx Definition


Wind Chill Definition


Weather Definition


TIME
00:00 Legend Double Dagger -4.9 -10.8 64 16 11 16.1 100.67   -9 LegendNANA
01:00 Legend Double Dagger -4.9 -10.0 68 19 15 16.1 100.67   -10 LegendNANA
02:00 Legend Double Dagger -5.2 -10.3 68 12 11 16.1 100.71   -10 LegendNANA
03:00 Legend Double Dagger -4.6 -10.5 64 15 13 16.1 100.75   -10 LegendNANA
04:00 Legend Double Dagger -5.5 -9.8 72 15 5 16.1 100.79   -8 LegendNANA
05:00 Legend Double Dagger -5.2 -9.5 72 18 5 16.1 100.82   -7 LegendNANA
06:00 Legend Double Dagger -5.3 -9.8 71 13 8 16.1 100.85   -9 LegendNANA
07:00 Legend Double Dagger -4.9 -10.8 64 14 4 16.1 100.89   -7 LegendNANA
08:00 Legend Double Dagger -5.1 -10.4 67 15 5 16.1 100.93   -7 LegendNANA
09:00 Legend Double Dagger -4.5 -10.6 63 15 4 16.1 100.95   -6 LegendNANA
10:00 Legend Double Dagger -4.6 -10.6 63 9 5 16.1 100.98   -7 LegendNANA
11:00 Legend Double Dagger -4.3 -9.9 65 17 5 16.1 101.03   -6 LegendNANA
12:00 Legend Double Dagger -4.9 -8.4 77 10 4 16.1 101.07   -7 LegendNANA
13:00 Legend Double Dagger -4.3 -9.6 67   0 16.1 101.11     LegendNANA
14:00 Legend Double Dagger -4.6 -9.4 69 LegendMM 4 16.1 101.16   -6 LegendNANA
15:00 Legend Double Dagger -5.0 -9.3 72 LegendMM 4 16.1 101.21   -7 LegendNANA
16:00 Legend Double Dagger -4.7 -8.3 76 4 9 16.1 101.25   -9 LegendNANA
17:00 Legend Double Dagger -4.1 -8.3 73 3 5 16.1 101.29   -6 Snow
18:00 Legend Double Dagger -4.4 -8.1 76 LegendMM 4 16.1 101.31   -6 LegendNANA
19:00 Legend Double Dagger -4.9 -8.9 74 15 5 16.1 101.34   -7 LegendNANA
20:00 Legend Double Dagger -5.3 -8.3 80 15 4 16.1 101.35   -7 LegendNANA
21:00 Legend Double Dagger -5.1 -8.5 77 19 8 16.1 101.33   -9 LegendNANA
22:00 Legend Double Dagger -5.1 -8.6 77 17 8 16.1 101.33   -9 LegendNANA
23:00 Legend Double Dagger -5.6 -9.3 75 18 15 16.1 101.30   -11 LegendNANA

Notes on Data Quality.

Legend

  • E = Estimated
  • M = Missing
  • NA = Not Available
  • ‡ = Partner data that is not subject to review by the National Climate Archives
Date modified: